User: anonymous   Login
Location: Caltech
(34.1382°N, 118.1253°W)
Time: 00:51:24
(UTC-07:00)
Language:

Cosmos 1939 Rocket - Orbit

View from above orbital plane
View from above orbital plane
View from above satellite
View from above satellite

Ground track
Ground track

The orbit data is extracted from the following two-line orbital elements,

1 19046U 88032B   17229.21158229  .00001060  00000-0  83676-4 0  9993
2 19046  97.5229 274.3437 0037417 125.4570 235.0157 15.02247714581800
Epoch (UTC): 17 August 2017 05:04:40
Eccentricity: 0.0037417
inclination: 97.5229°
perigee height: 534 km
apogee height: 586 km
right ascension of ascending node: 274.3437°
argument of perigee: 125.4570°
revolutions per day: 15.02247714
mean anomaly at epoch: 235.0157°
orbit number at epoch: 58180

The dashed part of the orbit path shows where the satellite is in the earth's shadow,  

DLR